Snoqualmie River: Sum of the 3 forks

back to: Snoqualmie river
Sum of the 3 forks Summary - Station Details: GARW1, SNQW1, TANW1, (NOAA Hydrograph: GARW1, SNQW1, TANW1)
Latest reading:
Sat05/25 01:15 pm 1824 cfs (-96/hr)
Past 24hr max:
Sat05/25 04:00 am 1970 cfs
Forecasted crests: (published Sat 05/25/19 11:27 am)
Sat05/25 11:00 pm 2022 cfs
Mon05/27 05:00 am 1808 cfs
Tue05/28 05:00 am 1891 cfs
Wed05/29 05:00 am 1795 cfs
Thu05/30 05:00 am 1723 cfs
Fri05/31 05:00 am 1699 cfs
Sat06/01 05:00 am 1660 cfs
Sun06/02 05:00 am 1566 cfs
Mon06/03 05:00 am 2096 cfs

Sum of the 3 forks Details

Latest Readings

Last 100 Readings:
Sat05/25 01:15 pm 1824 cfs
Sat05/25 01:00 pm 1848 cfs
Sat05/25 12:45 pm 1848 cfs
Sat05/25 12:30 pm 1864 cfs
Sat05/25 12:15 pm 1851 cfs
Sat05/25 12:00 pm 1870 cfs
Sat05/25 11:45 am 1871 cfs
Sat05/25 11:30 am 1874 cfs
Sat05/25 11:15 am 1874 cfs
Sat05/25 11:00 am 1881 cfs
Sat05/25 10:45 am 1877 cfs
Sat05/25 10:30 am 1908 cfs
Sat05/25 10:15 am 1904 cfs
Sat05/25 10:00 am 1915 cfs
Sat05/25 09:45 am 1908 cfs
Sat05/25 09:30 am 1914 cfs
Sat05/25 09:15 am 1901 cfs
Sat05/25 09:00 am 1914 cfs
Sat05/25 08:45 am 1925 cfs
Sat05/25 08:30 am 1922 cfs
Sat05/25 08:15 am 1939 cfs
Sat05/25 08:00 am 1935 cfs
Sat05/25 07:45 am 1936 cfs
Sat05/25 07:30 am 1926 cfs
Sat05/25 07:15 am 1932 cfs
Sat05/25 07:00 am 1956 cfs
Sat05/25 06:45 am 1956 cfs
Sat05/25 06:30 am 1949 cfs
Sat05/25 06:15 am 1920 cfs
Sat05/25 06:00 am 1933 cfs
Sat05/25 05:45 am 1950 cfs
Sat05/25 05:30 am 1943 cfs
Sat05/25 05:15 am 1963 cfs
Sat05/25 05:00 am 1960 cfs
Sat05/25 04:45 am 1960 cfs
Sat05/25 04:30 am 1954 cfs
Sat05/25 04:15 am 1950 cfs
Sat05/25 04:00 am 1970 cfs
Sat05/25 03:45 am 1954 cfs
Sat05/25 03:30 am 1957 cfs
Sat05/25 03:15 am 1960 cfs
Sat05/25 03:00 am 1954 cfs
Sat05/25 02:45 am 1954 cfs
Sat05/25 02:30 am 1960 cfs
Sat05/25 02:15 am 1943 cfs
Sat05/25 02:00 am 1956 cfs
Sat05/25 01:45 am 1953 cfs
Sat05/25 01:30 am 1939 cfs
Sat05/25 01:15 am 1939 cfs
Sat05/25 01:00 am 1939 cfs
Sat05/25 12:45 am 1943 cfs
Sat05/25 12:30 am 1928 cfs
Sat05/25 12:15 am 1939 cfs
Sat05/25 12:00 am 1939 cfs
Fri05/24 11:45 pm 1921 cfs
Fri05/24 11:30 pm 1909 cfs
Fri05/24 11:15 pm 1915 cfs
Fri05/24 11:00 pm 1885 cfs
Fri05/24 10:45 pm 1891 cfs
Fri05/24 10:30 pm 1898 cfs
Fri05/24 10:15 pm 1888 cfs
Fri05/24 10:00 pm 1902 cfs
Fri05/24 09:45 pm 1908 cfs
Fri05/24 09:30 pm 1888 cfs
Fri05/24 09:15 pm 1869 cfs
Fri05/24 09:00 pm 1878 cfs
Fri05/24 08:45 pm 1882 cfs
Fri05/24 08:30 pm 1861 cfs
Fri05/24 08:15 pm 1871 cfs
Fri05/24 08:00 pm 1878 cfs
Fri05/24 07:45 pm 1868 cfs
Fri05/24 07:30 pm 1867 cfs
Fri05/24 07:15 pm 1867 cfs
Fri05/24 07:00 pm 1854 cfs
Fri05/24 06:45 pm 1858 cfs
Fri05/24 06:30 pm 1867 cfs
Fri05/24 06:15 pm 1864 cfs
Fri05/24 06:00 pm 1867 cfs
Fri05/24 05:45 pm 1880 cfs
Fri05/24 05:30 pm 1861 cfs
Fri05/24 05:15 pm 1862 cfs
Fri05/24 05:00 pm 1865 cfs
Fri05/24 04:45 pm 1871 cfs
Fri05/24 04:30 pm 1878 cfs
Fri05/24 04:15 pm 1885 cfs
Fri05/24 04:00 pm 1865 cfs
Fri05/24 03:45 pm 1872 cfs
Fri05/24 03:30 pm 1888 cfs
Fri05/24 03:15 pm 1894 cfs
Fri05/24 03:00 pm 1881 cfs
Fri05/24 02:45 pm 1869 cfs
Fri05/24 02:30 pm 1916 cfs
Fri05/24 02:15 pm 1889 cfs
Fri05/24 02:00 pm 1889 cfs
Fri05/24 01:45 pm 1905 cfs
Fri05/24 01:30 pm 1898 cfs
Fri05/24 01:15 pm 1896 cfs
Fri05/24 01:00 pm 1909 cfs
Fri05/24 12:45 pm 1892 cfs
Fri05/24 12:30 pm 1899 cfs

Latest Forecasts

Currently Forecasted Readings:
Sat05/25 05:00 pm 1822 cfs
Sat05/25 11:00 pm 2022 cfs
Sun05/26 05:00 am 2014 cfs
Sun05/26 11:00 am 1854 cfs
Sun05/26 05:00 pm 1757 cfs
Sun05/26 11:00 pm 1801 cfs
Mon05/27 05:00 am 1808 cfs
Mon05/27 11:00 am 1732 cfs
Mon05/27 05:00 pm 1764 cfs
Mon05/27 11:00 pm 1854 cfs
Tue05/28 05:00 am 1891 cfs
Tue05/28 11:00 am 1839 cfs
Tue05/28 05:00 pm 1783 cfs
Tue05/28 11:00 pm 1791 cfs
Wed05/29 05:00 am 1795 cfs
Wed05/29 11:00 am 1717 cfs
Wed05/29 05:00 pm 1666 cfs
Wed05/29 11:00 pm 1708 cfs
Thu05/30 05:00 am 1723 cfs
Thu05/30 11:00 am 1657 cfs
Thu05/30 05:00 pm 1623 cfs
Thu05/30 11:00 pm 1682 cfs
Fri05/31 05:00 am 1699 cfs
Fri05/31 11:00 am 1632 cfs
Fri05/31 05:00 pm 1601 cfs
Fri05/31 11:00 pm 1621 cfs
Sat06/01 05:00 am 1660 cfs
Sat06/01 11:00 am 1589 cfs
Sat06/01 05:00 pm 1548 cfs
Sat06/01 11:00 pm 1557 cfs
Sun06/02 05:00 am 1566 cfs
Sun06/02 11:00 am 1520 cfs
Sun06/02 05:00 pm 1463 cfs
Sun06/02 11:00 pm 1812 cfs
Mon06/03 05:00 am 2096 cfs
Mon06/03 11:00 am 1962 cfs
Mon06/03 05:00 pm 1762 cfs
Mon06/03 11:00 pm 1607 cfs
Tue06/04 05:00 am 1549 cfs

Snoqualmie River flood gauge data supplied by the
National Weather Service Northwest River Forecast Center.

Sign up for Floodzilla alerts.